Regional Weather Roundup
Issued by NWS Binghamton, NY

Home | Current Version | Previous Version | Text Only | Print | Product List | Glossary On
Versions: 1 2 3 4 5 6 7 8 9 10 11 12 13 14 15 16 17 18 19 20 21 22 23 24 25 26 27 28 29 30 31 32 33 34 35 36 37 38 39 40 41 42 43 44 45 46 47 48 49 50
000
ASUS41 KBGM 221910
RWRBGM

REGIONAL WEATHER ROUNDUP
NATIONAL WEATHER SERVICE BINGHAMTON NY
300 PM EDT SUN APR 22 2018

Note: "fair" indicates few or no clouds below 12,000 feet with no
significant weather and/or obstructions to visibility.

* = Station(s) that does not report precipitation, such as rain,
snow, etc, also no thunder or fog.

NYZ009-015>018-022>025-036-037-044>046-055>057-062-222000
...Central New York...

CITY           SKY/WX    TMP DP  RH WIND       PRES   REMARKS
Binghamton     FAIR      57  15  19 NW7G17    30.36F
Cortland       FAIR      55  21  26 N8G18     30.38F
Dansville      FAIR      62  19  19 NW12      30.38F
Elmira         FAIR      62  21  20 N10       30.37F
Ithaca         FAIR      59  23  25 NW10      30.39F
Monticello     FAIR      59  16  18 NW10G20   30.34F
Penn Yan       FAIR      60  19  20 NE9G20    30.39F
Rome           FAIR      60  19  20 W9G17     30.37F
Sidney         SUNNY     59  19  21 N13G20    30.35F
Syracuse       FAIR      59  20  22 NW13      30.39F
$$

PAZ038>040-043-044-047-048-072-222000
...Northeast Pennsylvania...

CITY           SKY/WX    TMP DP  RH WIND       PRES   REMARKS
Hazleton       FAIR      63  18  17 NW6       30.38F
Scranton       FAIR      62  19  19 N7        30.35F
$$
&&
KEY
WCI = Wind Chill Index
VSB = Visibility
HX  = Heat Index
$$



USA.gov is the U.S. government's official web portal to all federal, state and local government web resources and services.